This is the latest recevied weather packets stored in our database for station/object K7D3. If no packets are shown the sender has not sent any weather packets the latest 10 day(s).
| Time | Temp. | Humidity | Pressure | Rain* | Wind** | Luminosity | Snow |
|---|---|---|---|---|---|---|---|
| 1777661127 | 6.11° C | 47% | - | 0 mm | 0.89 m/s, 294° | - | - |
| 1777660649 | 6.67° C | 46% | - | 0 mm | 1.34 m/s, 305° | - | - |
| 1777660170 | 6.67° C | 46% | - | 0 mm | 2.68 m/s, 48° | - | - |
| 1777659688 | 7.22° C | 46% | - | 0 mm | 3.13 m/s, 17° | - | - |
| 1777659210 | 7.22° C | 45% | - | 0 mm | 4.02 m/s, 30° | - | - |
| 1777658731 | 6.67° C | 45% | - | 0 mm | 2.68 m/s, 65° | - | - |
| 1777658249 | 7.22° C | 44% | - | 0 mm | 4.47 m/s, 25° | - | - |
| 1777657771 | 7.22° C | 43% | - | 0 mm | 3.58 m/s, 357° | - | - |
| 1777657292 | 6.67° C | 43% | - | 0 mm | 1.34 m/s, 42° | - | - |
| 1777656810 | 6.67° C | 43% | - | 0 mm | 2.24 m/s, 333° | - | - |
| 1777656332 | 6.67° C | 42% | - | 0 mm | 0.89 m/s, 321° | - | - |
| 1777655853 | 6.67° C | 42% | - | 0 mm | 3.13 m/s, 70° | - | - |
| 1777655371 | 6.11° C | 42% | - | 0 mm | 3.58 m/s, 87° | - | - |
| 1777654892 | 6.11° C | 45% | - | 0 mm | 2.68 m/s, 72° | - | - |
| 1777654414 | 6.11° C | 44% | - | 0 mm | 4.02 m/s, 59° | - | - |
| 1777653931 | 6.11° C | 45% | - | 0 mm | 1.79 m/s, 307° | - | - |
| 1777653452 | 6.11° C | 45% | - | 0 mm | 2.24 m/s, 53° | - | - |
| 1777652974 | 6.11° C | 48% | - | 0 mm | 2.68 m/s, 10° | - | - |
| 1777652491 | 5.56° C | 45% | - | 0 mm | 3.13 m/s, 32° | - | - |
| 1777652013 | 6.11° C | 46% | - | 0 mm | 2.24 m/s, 76° | - | - |
| 1777651534 | 5.56° C | 48% | - | 0 mm | 1.79 m/s, 21° | - | - |
| 1777651049 | 5.56° C | 49% | - | 0 mm | 0.89 m/s, 83° | - | - |
| 1777650570 | 5° C | 48% | - | 0 mm | 2.68 m/s, 93° | - | - |
| 1777650092 | 5° C | 50% | - | 0 mm | 0.89 m/s, 93° | - | - |
| 1777649609 | 5.56° C | 51% | - | 0 mm | 3.13 m/s, 357° | - | - |
* Rain latest hour (hover to see other rain measurements)
** Current wind speed in m/s (hover to see current wind gust speed)